Weather History for Laredo, TX

Change the Weather History Date:

Monday, February 11, 2013

  Actual Average Record
Temperature  
Mean Temperature 63 °F 60 °F  
Max Temperature 70 °F 71 °F 92 °F (1922)
Min Temperature 56 °F 50 °F 24 °F (1929)
Degree Days  
Heating Degree Days 2 6  
Month to date heating degree days 2 79  
Since 1 July heating degree days 433 758  
Cooling Degree Days 0 2  
Month to date cooling degree days 50 18  
Year to date cooling degree days 128 46  
Growing Degree Days 12 (Base 50)    
Moisture  
Dew Point 47 °F    
Average Humidity 59    
Maximum Humidity 83    
Minimum Humidity 35    
Precipitation  
Precipitation 0.00 in 0.03 in 0.94 in (1963)
Month to date precipitation 0.29 0.35  
Year to date precipitation 0.73 1.25  
Sea Level Pressure  
Sea Level Pressure 29.94 in    
Wind  
Wind Speed 10 mph (NE)    
Max Wind Speed 16 mph    
Max Gust Speed 20 mph    
Visibility 10 miles    
Events      
T = Trace of Precipitation, MM = Missing Value Source: NWS Daily Summary

Daily Weather History Graph

Daily Weather History Graph

Search for Another Location

Airport:

Trip Planner

Search our weather history database for the weather conditions in past years. The results will help you decide how hot, cold, wet, or windy it might be!

Date:

Astronomy

Feb. 11, 2013 Rise Set
Actual Time 7:17 AM CST 6:26 PM CST
Civil Twilight 6:53 AM CST 6:50 PM CST
Nautical Twilight 6:26 AM CST 7:18 PM CST
Astronomical Twilight 5:58 AM CST 7:45 PM CST
Moon 7:56 AM CST (2/11) 8:09 PM CST (2/11)
Length of Visible Light 11h 57m
Length of Day
11h 09m
Waxing Crescent, 3% of the Moon is Illuminated
Feb 11
Waxing Crescent
Feb 17
First Quarter
Feb 25
Full
Mar 4
Last Quarter
Mar 11
New

Hourly Weather History & Observations

Time (CST) Temp. Dew Point Humidity Pressure Visibility Wind Dir Wind Speed Gust Speed Precip Events Conditions
12:15 AM 64.4 °F 37.4 °F 37% 29.98 in 10.0 mi NE 11.5 mph - N/A   Overcast
12:56 AM 64.9 °F 38.8 °F 38% 29.95 in 10.0 mi NNE 10.4 mph - N/A   Mostly Cloudy
1:56 AM 64.9 °F 36.9 °F 35% 29.93 in 10.0 mi ENE 9.2 mph - N/A   Mostly Cloudy
2:28 AM 64.4 °F 37.4 °F 37% 29.96 in 10.0 mi ENE 11.5 mph - N/A   Overcast
2:56 AM 63.9 °F 36.9 °F 37% 29.95 in 10.0 mi NNE 11.5 mph - N/A   Overcast
3:56 AM 63.0 °F 36.0 °F 37% 29.93 in 10.0 mi East 11.5 mph - N/A   Overcast
4:56 AM 61.0 °F 41.9 °F 49% 29.92 in 10.0 mi ENE 12.7 mph - N/A   Overcast
5:56 AM 57.9 °F 45.9 °F 64% 29.94 in 10.0 mi ENE 8.1 mph - N/A   Overcast
6:56 AM 55.9 °F 43.0 °F 62% 29.96 in 10.0 mi NE 8.1 mph - N/A   Overcast
7:56 AM 57.9 °F 41.9 °F 55% 29.98 in 10.0 mi NNE 6.9 mph - N/A   Overcast
8:56 AM 57.9 °F 45.9 °F 64% 30.00 in 10.0 mi North 9.2 mph - N/A   Overcast
9:56 AM 59.0 °F 46.9 °F 64% 30.01 in 10.0 mi NNE 10.4 mph - N/A   Overcast
10:56 AM 59.9 °F 48.9 °F 67% 30.01 in 10.0 mi NNE 8.1 mph - N/A   Overcast
11:56 AM 61.9 °F 48.9 °F 62% 30.00 in 10.0 mi NNE 9.2 mph - N/A   Overcast
12:56 PM 63.9 °F 48.9 °F 58% 29.96 in 10.0 mi NNE 6.9 mph - N/A   Overcast
1:56 PM 65.8 °F 50.9 °F 58% 29.92 in 10.0 mi ENE 8.1 mph - N/A   Overcast
2:56 PM 68.0 °F 50.9 °F 54% 29.89 in 10.0 mi NE 9.2 mph - N/A   Overcast
3:56 PM 70.0 °F 52.0 °F 53% 29.88 in 10.0 mi East 9.2 mph 16.1 mph N/A   Overcast
4:44 PM 68.0 °F 51.8 °F 56% 29.90 in 10.0 mi NE 11.5 mph - N/A   Scattered Clouds
4:56 PM 68.9 °F 52.9 °F 57% 29.87 in 10.0 mi NE 11.5 mph - N/A   Clear
5:56 PM 66.9 °F 52.0 °F 59% 29.87 in 10.0 mi NE 15.0 mph - N/A   Clear
6:56 PM 64.9 °F 52.0 °F 63% 29.88 in 10.0 mi NE 10.4 mph - N/A   Clear
7:56 PM 63.0 °F 52.9 °F 70% 29.89 in 10.0 mi NE 12.7 mph - N/A   Clear
8:34 PM 62.6 °F 53.6 °F 72% 29.93 in 10.0 mi ENE 15.0 mph 19.6 mph N/A   Mostly Cloudy
8:56 PM 63.0 °F 54.9 °F 75% 29.92 in 10.0 mi ENE 12.7 mph - N/A   Overcast
9:56 PM 61.0 °F 54.0 °F 78% 29.92 in 10.0 mi ENE 13.8 mph - N/A   Overcast
10:25 PM 60.8 °F 53.6 °F 77% 29.94 in 7.0 mi ENE 16.1 mph - N/A   Overcast
10:56 PM 59.9 °F 54.9 °F 83% 29.93 in 7.0 mi ENE 10.4 mph - N/A   Overcast
11:56 PM 57.9 °F 54.9 °F 90% 29.93 in 3.0 mi ENE 10.4 mph - N/A   Overcast